SWA1926 KLIT-KBNA

Flight info

Callsign SWA1926
Flight time 0h 48m
Altitude 39000
Route MICKE MEMFS CHSNE3
Aircraft B737/M-SDE2E3FGHIRWXY/LB1

Departure

Time 2026-04-20 20:31
Airport Bill & Hillary Clinton National Airport/Adams Field (KLIT)

Arrival

Time 2026-04-20 21:20
Airport Nashville International Airport (KBNA)
Time Latitude Longitude Altitude Speed Heading
2026-04-20 20:15 34.73124 -92.21953 266 ft 0 kts 193°
2026-04-20 20:22 34.73144 -92.21947 266 ft 4 kts 193°
2026-04-20 20:22 34.73170 -92.21940 266 ft 4 kts 195°
2026-04-20 20:23 34.73190 -92.21932 266 ft 0 kts 193°
2026-04-20 20:24 34.73189 -92.21933 266 ft 1 kts 193°
2026-04-20 20:24 34.73182 -92.21935 266 ft 1 kts 193°
2026-04-20 20:25 34.73169 -92.21929 266 ft 4 kts 135°
2026-04-20 20:25 34.73163 -92.21879 266 ft 10 kts 95°
2026-04-20 20:25 34.73141 -92.21797 266 ft 11 kts 137°
2026-04-20 20:25 34.73080 -92.21717 268 ft 14 kts 114°
2026-04-20 20:26 34.73050 -92.21634 266 ft 18 kts 114°
2026-04-20 20:26 34.72984 -92.21457 266 ft 17 kts 114°
2026-04-20 20:26 34.72951 -92.21369 266 ft 17 kts 114°
2026-04-20 20:26 34.72905 -92.21244 266 ft 16 kts 114°
2026-04-20 20:27 34.72920 -92.21126 265 ft 15 kts 46°
2026-04-20 20:27 34.72996 -92.21028 265 ft 20 kts 46°
2026-04-20 20:27 34.73097 -92.20900 265 ft 21 kts 46°
2026-04-20 20:27 34.73196 -92.20773 265 ft 20 kts 46°
2026-04-20 20:28 34.73303 -92.20637 265 ft 24 kts 46°
2026-04-20 20:28 34.73408 -92.20495 265 ft 23 kts 52°
2026-04-20 20:28 34.73504 -92.20341 265 ft 22 kts 53°
2026-04-20 20:28 34.73555 -92.20222 264 ft 0 kts 107°
2026-04-20 20:29 34.73554 -92.20218 264 ft 1 kts 107°
2026-04-20 20:29 34.73551 -92.20206 263 ft 1 kts 115°
2026-04-20 20:29 34.73541 -92.20186 262 ft 4 kts 139°
2026-04-20 20:29 34.73511 -92.20160 261 ft 6 kts 143°
2026-04-20 20:30 34.73483 -92.20154 261 ft 4 kts 226°
2026-04-20 20:30 34.73469 -92.20171 261 ft 2 kts 224°
2026-04-20 20:30 34.73464 -92.20177 261 ft 3 kts 224°
2026-04-20 20:30 34.73262 -92.20431 263 ft 88 kts 226°
2026-04-20 20:31 34.72645 -92.21208 310 ft 161 kts 223°
2026-04-20 20:31 34.71841 -92.22250 1265 ft 164 kts 223°
2026-04-20 20:31 34.70939 -92.23041 2452 ft 163 kts 202°
2026-04-20 20:31 34.69736 -92.23279 3015 ft 196 kts 170°
2026-04-20 20:32 34.68517 -92.22333 3524 ft 230 kts 125°
2026-04-20 20:32 34.68075 -92.20353 4067 ft 263 kts 86°
2026-04-20 20:32 34.68766 -92.18261 5144 ft 276 kts 52°
2026-04-20 20:32 34.70342 -92.16902 6202 ft 285 kts 19°
2026-04-20 20:33 34.72236 -92.16228 7354 ft 286 kts 16°
2026-04-20 20:33 34.74112 -92.15353 8432 ft 290 kts 24°
2026-04-20 20:33 34.75861 -92.14107 9527 ft 295 kts 34°
2026-04-20 20:33 34.77574 -92.12709 10514 ft 299 kts 25°
2026-04-20 20:34 34.79384 -92.11282 10883 ft 329 kts 45°
2026-04-20 20:34 34.80564 -92.08797 11323 ft 352 kts 75°
2026-04-20 20:34 34.80844 -92.05814 12207 ft 358 kts 88°
2026-04-20 20:34 34.80838 -92.02764 13150 ft 363 kts 90°
2026-04-20 20:35 34.80833 -91.99702 14035 ft 369 kts 88°
2026-04-20 20:35 34.80911 -91.96557 14855 ft 374 kts 86°
2026-04-20 20:35 34.81083 -91.93386 15753 ft 376 kts 84°
2026-04-20 20:35 34.81328 -91.90212 16661 ft 379 kts 82°
2026-04-20 20:36 34.81625 -91.87014 17513 ft 382 kts 81°
2026-04-20 20:36 34.81957 -91.83786 18365 ft 386 kts 80°
2026-04-20 20:36 34.82311 -91.80525 19113 ft 391 kts 79°
2026-04-20 20:36 34.82678 -91.77238 19789 ft 396 kts 79°
2026-04-20 20:37 34.83055 -91.73885 20458 ft 402 kts 79°
2026-04-20 20:37 34.83437 -91.70495 21125 ft 407 kts 79°
2026-04-20 20:37 34.83823 -91.67065 21800 ft 411 kts 79°
2026-04-20 20:37 34.84212 -91.63592 22447 ft 416 kts 79°
2026-04-20 20:38 34.84604 -91.60081 23098 ft 422 kts 79°
2026-04-20 20:38 34.85001 -91.56520 23729 ft 427 kts 79°
2026-04-20 20:38 34.85400 -91.52919 24267 ft 432 kts 79°
2026-04-20 20:38 34.85804 -91.49266 24720 ft 439 kts 79°
2026-04-20 20:39 34.86214 -91.45555 25160 ft 445 kts 79°
2026-04-20 20:39 34.86627 -91.41799 25651 ft 450 kts 79°
2026-04-20 20:39 34.87044 -91.37993 26120 ft 456 kts 79°
2026-04-20 20:39 34.87464 -91.34151 26559 ft 461 kts 79°
2026-04-20 20:40 34.87889 -91.30253 27000 ft 466 kts 79°
2026-04-20 20:40 34.88316 -91.26317 27448 ft 471 kts 79°
2026-04-20 20:40 34.88747 -91.22342 27884 ft 476 kts 79°
2026-04-20 20:40 34.89180 -91.18326 28310 ft 481 kts 79°
2026-04-20 20:41 34.89611 -91.14322 28727 ft 486 kts 79°
2026-04-20 20:41 34.90049 -91.10234 29209 ft 489 kts 79°
2026-04-20 20:41 34.90490 -91.06107 29618 ft 493 kts 79°
2026-04-20 20:41 34.90932 -91.01954 30004 ft 498 kts 79°
2026-04-20 20:42 34.91379 -90.97748 30378 ft 502 kts 79°
2026-04-20 20:42 34.91827 -90.93519 30698 ft 506 kts 79°
2026-04-20 20:42 34.92275 -90.89261 31063 ft 508 kts 79°
2026-04-20 20:42 34.92724 -90.84986 31412 ft 510 kts 79°
2026-04-20 20:43 34.93175 -90.80681 31725 ft 513 kts 79°
2026-04-20 20:43 34.93627 -90.76349 32041 ft 516 kts 79°
2026-04-20 20:43 34.94079 -90.72002 32408 ft 517 kts 79°
2026-04-20 20:43 34.94527 -90.67668 32822 ft 517 kts 79°
2026-04-20 20:44 34.94976 -90.63314 33218 ft 517 kts 79°
2026-04-20 20:44 34.95424 -90.58960 33574 ft 518 kts 79°
2026-04-20 20:44 34.95870 -90.54609 33920 ft 518 kts 79°
2026-04-20 20:44 34.96316 -90.50248 34298 ft 519 kts 79°
2026-04-20 20:45 34.96761 -90.45873 34600 ft 519 kts 79°
2026-04-20 20:45 34.97204 -90.41511 34881 ft 520 kts 79°
2026-04-20 20:45 34.97647 -90.37131 35164 ft 521 kts 78°
2026-04-20 20:45 34.98090 -90.32738 35351 ft 524 kts 78°
2026-04-20 20:46 34.98533 -90.28320 35591 ft 525 kts 78°
2026-04-20 20:46 34.98974 -90.23909 35920 ft 524 kts 78°
2026-04-20 20:46 34.99412 -90.19500 36295 ft 523 kts 78°
2026-04-20 20:46 34.99847 -90.15109 36620 ft 522 kts 78°
2026-04-20 20:47 35.00282 -90.10708 36871 ft 523 kts 78°
2026-04-20 20:47 35.00717 -90.06298 37101 ft 524 kts 78°
2026-04-20 20:47 35.01150 -90.01899 37363 ft 524 kts 78°
2026-04-20 20:47 35.01699 -89.97512 37633 ft 518 kts 69°
2026-04-20 20:48 35.02895 -89.93423 37833 ft 510 kts 60°
2026-04-20 20:48 35.04267 -89.89442 38106 ft 508 kts 59°
2026-04-20 20:48 35.05664 -89.85499 38375 ft 508 kts 59°
2026-04-20 20:48 35.07044 -89.81589 38650 ft 507 kts 59°
2026-04-20 20:49 35.08419 -89.77628 38938 ft 507 kts 59°
2026-04-20 20:49 35.09776 -89.73649 39162 ft 507 kts 60°
2026-04-20 20:49 35.11115 -89.69670 39315 ft 508 kts 60°
2026-04-20 20:49 35.12454 -89.65667 39311 ft 512 kts 60°
2026-04-20 20:50 35.15124 -89.57620 39316 ft 509 kts 60°
2026-04-20 20:50 35.17768 -89.49629 39300 ft 505 kts 60°
2026-04-20 20:51 35.20396 -89.41685 39302 ft 502 kts 60°
2026-04-20 20:51 35.23009 -89.33779 39303 ft 501 kts 60°
2026-04-20 20:52 35.25606 -89.25900 39334 ft 500 kts 60°
2026-04-20 20:52 35.28204 -89.17998 39319 ft 500 kts 60°
2026-04-20 20:53 35.30796 -89.10090 39316 ft 501 kts 60°
2026-04-20 20:53 35.32103 -89.06100 38937 ft 508 kts 60°
2026-04-20 20:53 35.33417 -89.02086 38301 ft 508 kts 60°
2026-04-20 20:54 35.34722 -88.98079 37694 ft 505 kts 60°
2026-04-20 20:54 35.36018 -88.94089 37053 ft 503 kts 61°
2026-04-20 20:54 35.37310 -88.90112 36429 ft 502 kts 61°
2026-04-20 20:54 35.38600 -88.86140 35739 ft 502 kts 61°
2026-04-20 20:55 35.39875 -88.82214 35055 ft 502 kts 61°
2026-04-20 20:55 35.41183 -88.78179 34258 ft 503 kts 62°
2026-04-20 20:55 35.42457 -88.74243 33400 ft 504 kts 62°
2026-04-20 20:55 35.43747 -88.70251 32549 ft 503 kts 62°
2026-04-20 20:56 35.45045 -88.66226 31936 ft 498 kts 62°
2026-04-20 20:56 35.46285 -88.62362 31616 ft 486 kts 62°
2026-04-20 20:56 35.47510 -88.58538 31157 ft 479 kts 61°
2026-04-20 20:56 35.48724 -88.54757 30606 ft 475 kts 61°
2026-04-20 20:57 35.49928 -88.51007 30025 ft 470 kts 61°
2026-04-20 20:57 35.51120 -88.47291 29379 ft 465 kts 61°
2026-04-20 20:57 35.52296 -88.43621 28795 ft 460 kts 60°
2026-04-20 20:57 35.53456 -88.39995 28209 ft 454 kts 61°
2026-04-20 20:58 35.54604 -88.36400 27621 ft 449 kts 61°
2026-04-20 20:58 35.55737 -88.32849 27040 ft 444 kts 61°
2026-04-20 20:58 35.56853 -88.29348 26464 ft 439 kts 61°
2026-04-20 20:58 35.57958 -88.25877 25898 ft 434 kts 61°
2026-04-20 20:59 35.59051 -88.22442 25337 ft 430 kts 61°
2026-04-20 20:59 35.60133 -88.19038 24781 ft 425 kts 61°
2026-04-20 20:59 35.61202 -88.15667 24228 ft 421 kts 62°
2026-04-20 20:59 35.62258 -88.12331 23732 ft 415 kts 62°
2026-04-20 21:00 35.63288 -88.09071 23277 ft 407 kts 62°
2026-04-20 21:00 35.64306 -88.05852 22751 ft 401 kts 62°
2026-04-20 21:00 35.65314 -88.02667 22171 ft 397 kts 62°
2026-04-20 21:00 35.66310 -87.99519 21608 ft 394 kts 62°
2026-04-20 21:01 35.67297 -87.96398 21067 ft 390 kts 62°
2026-04-20 21:01 35.68275 -87.93300 20519 ft 387 kts 62°
2026-04-20 21:01 35.69244 -87.90225 19969 ft 385 kts 62°
2026-04-20 21:01 35.70209 -87.87160 19417 ft 382 kts 62°
2026-04-20 21:02 35.71167 -87.84118 18867 ft 381 kts 62°
2026-04-20 21:02 35.72119 -87.81086 18274 ft 379 kts 63°
2026-04-20 21:02 35.73067 -87.78067 17681 ft 377 kts 63°
2026-04-20 21:02 35.74006 -87.75070 17129 ft 374 kts 63°
2026-04-20 21:03 35.74940 -87.72087 16569 ft 372 kts 63°
2026-04-20 21:03 35.75866 -87.69123 16118 ft 368 kts 63°
2026-04-20 21:03 35.76773 -87.66217 15671 ft 367 kts 63°
2026-04-20 21:03 35.77689 -87.63281 15172 ft 367 kts 63°
2026-04-20 21:04 35.78598 -87.60358 14656 ft 365 kts 63°
2026-04-20 21:04 35.79494 -87.57474 14120 ft 364 kts 64°
2026-04-20 21:04 35.80396 -87.54566 13536 ft 363 kts 64°
2026-04-20 21:04 35.81305 -87.51635 12994 ft 360 kts 64°
2026-04-20 21:05 35.82192 -87.48770 12478 ft 356 kts 64°
2026-04-20 21:05 35.83107 -87.46003 12032 ft 349 kts 60°
2026-04-20 21:05 35.84158 -87.43338 11634 ft 342 kts 58°
2026-04-20 21:05 35.85211 -87.40738 11245 ft 336 kts 58°
2026-04-20 21:06 35.86236 -87.38173 10860 ft 331 kts 58°
2026-04-20 21:06 35.87192 -87.35620 10473 ft 329 kts 66°
2026-04-20 21:06 35.87491 -87.32821 10266 ft 328 kts 90°
2026-04-20 21:06 35.87158 -87.30100 10274 ft 314 kts 97°
2026-04-20 21:07 35.86718 -87.27520 10162 ft 303 kts 98°
2026-04-20 21:07 35.86272 -87.24995 9821 ft 301 kts 98°
2026-04-20 21:07 35.85835 -87.22474 9430 ft 300 kts 98°
2026-04-20 21:07 35.85409 -87.19965 9089 ft 299 kts 98°
2026-04-20 21:08 35.84992 -87.17465 8756 ft 296 kts 98°
2026-04-20 21:08 35.84581 -87.14982 8424 ft 295 kts 98°
2026-04-20 21:08 35.84175 -87.12512 8144 ft 292 kts 98°
2026-04-20 21:08 35.83778 -87.10112 8055 ft 280 kts 98°
2026-04-20 21:09 35.83397 -87.07801 7942 ft 271 kts 98°
2026-04-20 21:09 35.83018 -87.05554 7780 ft 264 kts 101°
2026-04-20 21:09 35.82570 -87.03381 7587 ft 260 kts 103°
2026-04-20 21:09 35.82090 -87.01239 7360 ft 257 kts 104°
2026-04-20 21:10 35.81603 -86.99162 7297 ft 247 kts 104°
2026-04-20 21:10 35.81140 -86.97173 7287 ft 238 kts 103°
2026-04-20 21:10 35.80695 -86.95217 7275 ft 239 kts 103°
2026-04-20 21:10 35.80274 -86.93191 6940 ft 247 kts 100°
2026-04-20 21:11 35.79849 -86.91111 6544 ft 254 kts 103°
2026-04-20 21:11 35.79382 -86.89040 6298 ft 252 kts 103°
2026-04-20 21:11 35.78906 -86.86942 6042 ft 250 kts 103°
2026-04-20 21:11 35.78430 -86.84895 5904 ft 245 kts 104°
2026-04-20 21:12 35.78248 -86.82854 5658 ft 240 kts 73°
2026-04-20 21:12 35.79047 -86.81204 5535 ft 223 kts 32°
2026-04-20 21:12 35.80433 -86.80597 5451 ft 211 kts
2026-04-20 21:12 35.81912 -86.80377 5384 ft 219 kts 11°
2026-04-20 21:13 35.83391 -86.79803 5279 ft 225 kts 15°
2026-04-20 21:13 35.84888 -86.79183 5184 ft 227 kts 15°
2026-04-20 21:13 35.85885 -86.78789 5110 ft 227 kts 14°
2026-04-20 21:13 35.87865 -86.78012 5024 ft 216 kts 14°
2026-04-20 21:14 35.88796 -86.77651 5004 ft 206 kts 15°
2026-04-20 21:14 35.90498 -86.76981 4939 ft 185 kts 14°
2026-04-20 21:14 35.91338 -86.76651 4733 ft 184 kts 14°
2026-04-20 21:14 35.92569 -86.76170 4505 ft 190 kts 14°
2026-04-20 21:15 35.94242 -86.75516 4185 ft 187 kts 14°
2026-04-20 21:15 35.95057 -86.75201 4039 ft 186 kts 15°
2026-04-20 21:15 35.96283 -86.74714 3771 ft 184 kts 15°
2026-04-20 21:15 35.97485 -86.74247 3555 ft 179 kts 13°
2026-04-20 21:16 35.98657 -86.73789 3297 ft 175 kts 15°
2026-04-20 21:16 35.99808 -86.73336 3076 ft 174 kts 14°
2026-04-20 21:16 36.00948 -86.72890 2869 ft 173 kts 12°
2026-04-20 21:16 36.02123 -86.72431 2652 ft 177 kts 14°
2026-04-20 21:17 36.03277 -86.71976 2416 ft 167 kts 13°
2026-04-20 21:17 36.04355 -86.71555 2159 ft 156 kts 13°
2026-04-20 21:17 36.05355 -86.71161 1924 ft 149 kts 14°
2026-04-20 21:17 36.06281 -86.70801 1780 ft 136 kts 16°
2026-04-20 21:18 36.07151 -86.70438 1583 ft 132 kts 12°
2026-04-20 21:18 36.08012 -86.70117 1452 ft 132 kts 15°
2026-04-20 21:18 36.08923 -86.69767 1277 ft 143 kts 14°
2026-04-20 21:18 36.09876 -86.69390 1049 ft 142 kts 12°
2026-04-20 21:19 36.10774 -86.69038 835 ft 132 kts 13°
2026-04-20 21:19 36.11646 -86.68691 642 ft 128 kts 12°
2026-04-20 21:19 36.12451 -86.68385 575 ft 107 kts 17°
2026-04-20 21:20 36.13254 -86.68056 577 ft 21 kts 36°
2026-04-20 21:20 36.13318 -86.67919 574 ft 12 kts 70°
2026-04-20 21:20 36.13260 -86.67878 574 ft 12 kts 194°
2026-04-20 21:20 36.13183 -86.67909 575 ft 12 kts 198°
2026-04-20 21:21 36.13106 -86.67926 572 ft 11 kts 163°
2026-04-20 21:21 36.13025 -86.67836 572 ft 19 kts 134°
2026-04-20 21:21 36.12936 -86.67718 573 ft 19 kts 133°
2026-04-20 21:21 36.12849 -86.67604 572 ft 18 kts 133°
2026-04-20 21:22 36.12764 -86.67493 573 ft 18 kts 133°
2026-04-20 21:22 36.12761 -86.67382 572 ft 15 kts 45°
2026-04-20 21:22 36.12827 -86.67279 572 ft 17 kts 78°
2026-04-20 21:22 36.12785 -86.67138 570 ft 18 kts 126°
2026-04-20 21:23 36.12704 -86.67019 571 ft 18 kts 129°
2026-04-20 21:23 36.12653 -86.66905 570 ft 13 kts 70°
2026-04-20 21:23 36.12716 -86.66833 569 ft 11 kts 40°
2026-04-20 21:23 36.12761 -86.66846 570 ft 3 kts 310°
2026-04-20 21:24 36.12768 -86.66856 574 ft 0 kts 310°